COSMOS 2251 DEB, 34845

Orbit data source: Space-Track

COSMOS 2251 DEB, 34845 is space debris in LEO originally from a launch on Wed, 16 Jun 1993 UTC launched from the Plesetsk Missile And Space Complex (PKMTR). The debris from Iridium 33, an American commercial communications satellite, has been tracked extensively since its accidental collision with the defunct Russian satellite Cosmos 2251 in 2009. This event, occurring at high speed in low Earth orbit (LEO), generated thousands of pieces of space debris, significantly increasing the risk of further collisions. The Iridium 33 debris cloud has impacted space traffic management and orbital debris mitigation strategies, making it a subject of ongoing study in space situational awareness.

Loading next visibility...
Identifier
34845, 1993-036ABP
Orbit
LEO
Country
Flag of CISCIS
Related business
Manufacturer
Unknown
Mission
Spacecraft
Bus & Motor
Unknown
Mass
Unknown
Launch date (UTC)
1993-06-16 (33 years ago)
Launch vehicle
Unknown
Launch site
Plesetsk Missile And Space Complex (PKMTR)
Object type
Payload
Rocket body
Debris
Shape & HBR
Unknown shape, 0.1 m
Radar Cross Section
Small (<0.1 m²)

Expand to show TLE details & history
Last TLE update: 6 days ago

TLE from 6 days ago
0 COSMOS 2251 DEB
1 34845U 93036ABP 25343.83617382  .00001636  00000-0  46671-3 0  9993
2 34845  74.0237 153.7694 0022259 315.2139  44.7222 14.45850049874244
Epoch: 2025-12-09T20:04Z
TLE epoch observation values (Epoch: 2025-12-09T20:04:05.418Z)
Latitude
0.00007°
Longitude
133.9317°
Altitude
730.616 km
Speed
7.496 km/s
True Right ascension
10h 15m 04s
True Declination
0° 00' 00"
Sunlit
Object was in daylight at epoch
Visualization orbit readout
Latitude
Unknown
Longitude
Unknown
Altitude
Unknown
Speed
Unknown
Apparent Right ascension
Unknown
Apparent Declination
Unknown
Sunlit
N/A
Visualization observer readout
Local Sidereal Time
18:01:25
Azimuth
Unknown
Elevation
Unknown
Doppler factor
Unknown
Orbital elements
Apogee altitude
752.687 km
Perigee altitude
721.012 km
Semi-major axis
7,114.986 km
Eccentricity
0.00223
Inclination
74.0237°
RAAN
153.7694°
Arg. of periapsis
315.2139°
True anomaly
44.90204°
Mean anomaly
44.7222°
Eccentric anomaly
44.81208°
Mean motion
3.61645 °/min
Orbital period
99.55 mins
BSTAR
0.00046671
Loading maneuver chart data...
Computing Atmospheric mass density...

Documentation

Showing up to 5 results
|